Regional Weather Roundup
Issued by NWS

Home | Current Version | Previous Version | Text Only | Print | Product List | Glossary Off
Versions: 1 2 3 4 5 6 7 8 9 10 11 12 13 14 15 16 17 18 19 20 21 22 23 24 25 26 27 28 29 30 31 32 33 34 35 36 37 38 39 40 41 42 43 44 45 46 47 48 49 50

000
ASUS43 KMPX 022101
RWRMN
WEATHER ROUNDUP FOR MINNESOTA
NATIONAL WEATHER SERVICE TWIN CITIES/CHANHASSEN MN
300 PM CST MON MAR 02 2015


NOTE: "FAIR" INDICATES FEW OR NO CLOUDS BELOW 12,000 FEET WITH NO
SIGNIFICANT WEATHER AND/OR OBSTRUCTIONS TO VISIBILITY. N/A MEANS
CURRENT SKY AND/OR WEATHER CONDITIONS ARE NOT AVAILABLE.

MNZ060>063-068>070-022200-
   Twin Cities Metro

CITY           SKY/WX    TMP DP  RH WIND       PRES   REMARKS
TWIN CITIES    MOSUNNY   25   5  42 S9        30.32F WCI  15
ST PAUL        SUNNY     26   5  40 S12       30.35F WCI  16
CRYSTAL        SUNNY     28   6  39 S9        30.30F WCI  19
BLAINE         MOSUNNY   28   7  40 S15       30.31F WCI  17
LAKEVILLE      SUNNY     21   9  58 S9        30.33F WCI  11
EDEN PRAIRIE   SUNNY     26   9  48 S9        30.30F WCI  17
SOUTH ST PAUL  SUNNY     25   7  45 S7        30.34F WCI  18
LAKE ELMO      FAIR      27  10  50 S10G17    30.34F WCI  17
$$
MNZ001>005-007-008-013>017-022>024-027-028-022200-
   Northwest Minnesota

CITY           SKY/WX    TMP DP  RH WIND       PRES   REMARKS
BEMIDJI        SUNNY     26   6  42 S12       30.11F WCI  16
HALLOCK        SUNNY     25  18  74 S25       30.02F WCI   9
ROSEAU         SUNNY     25  10  54 S17       30.07F WCI  11
WARROAD        SUNNY     25  10  54 S8        30.09F WCI  16
THIEF RVR FALL SUNNY     23  14  68 S16       30.07F WCI  10
CROOKSTON      SUNNY     28  18  64 S25       30.07F WCI  14
FOSSTON        SUNNY     28  10  47 S18       30.09F WCI  16
DETROIT LAKES  SUNNY     27  12  54 S20       30.11F WCI  13
MOORHEAD       MOSUNNY   30  12  47 S25G32    30.09F WCI  16
PARK RAPIDS    SUNNY     26   8  46 S18       30.14F WCI  13
MAHNOMEN       FAIR      26  12  54 S17G25    30.11F WCI  13
$$
MNZ006-009>011-018-025>026-022200-
   North Central Minnesota

CITY           SKY/WX    TMP DP  RH WIND       PRES   REMARKS
BAUDETTE       SUNNY     25   9  50 S15       30.09F WCI  13
FLAG ISLAND    SUNNY     18  12  79 SE13      30.08F WCI   4
INTL FALLS     SUNNY     26   7  44 S9G18     30.13F WCI  17
WASKISH        SUNNY     30   9  40 CALM      30.12F
BIG FORK       SUNNY     28  10  47 SW12G18   30.15F WCI  18
LONGVILLE      SUNNY     28   5  37 S13G20    30.16F WCI  18
GRAND RAPIDS   SUNNY     27   7  43 S13       30.17F WCI  16
CRANE LAKE     SUNNY     27   0  31 S8        30.18F WCI  18
ORR            SUNNY     27   3  36 S7G16     30.13F WCI  19
COOK           SUNNY     27   7  43 S12G17    30.16F WCI  16
WALKER         FAIR      26   4  38 S12G20    30.15F WCI  16
$$
MNZ012-019>021-037-022200-
   Northeast Minnesota

CITY           SKY/WX    TMP DP  RH WIND       PRES   REMARKS
DULUTH         SUNNY     26   5  40 SW9G21    30.21F WCI  17
ELY            SUNNY     25   0  33 SW7       30.17F WCI  17
HIBBING        SUNNY     27   5  39 SW12G17   30.18F WCI  17
EVELETH        SUNNY     27   9  46 S10       30.19F WCI  17
DULUTH HARBOR  SUNNY     28   9  43 CALM      30.27F
TWO HARBORS    SUNNY     28  12  50 SW14      30.21F WCI  17
SILVER BAY     SUNNY     28  12  50 S9        30.20F WCI  20
GRAND MARAIS     N/A     25  15  66 SW15      30.27F WCI  13
G MARAIS ARPRT MOSUNNY   21   9  58 S10       30.19F WCI  10
$$
MNZ029>031-032-039>041-046>048-054>057-064-022200-
   West Central Minnesota

CITY           SKY/WX    TMP DP  RH WIND       PRES   REMARKS
FERGUS FALLS   MOSUNNY   28  12  50 S22       30.16F WCI  15
WHEATON        PTSUNNY   27  16  63 SE23G30   30.13F WCI  12
MORRIS         MOSUNNY   28  16  59 SE24G30   30.15F WCI  14
ALEXANDRIA     FAIR      24  10  55 S17       30.17F WCI  11
ELBOW LAKE     PTSUNNY   26  15  62 S22       30.14F WCI  12
WADENA         SUNNY     25  10  54 S16       30.16F WCI  12
GLENWOOD       PTSUNNY   27  12  54 S16       30.19F WCI  14
APPLETON       PTSUNNY   32  16  51 SE16G24   30.17F WCI  21
BENSON         CLOUDY    28  12  50 S16       30.20F WCI  17
ORTONVILLE     CLOUDY    28  16  59 S16G22    30.14F WCI  17
MADISON        MOSUNNY   30  18  59 S20       30.16F WCI  18
WILLMAR        FAIR      30  16  55 S13G18    30.23F WCI  20
$$
MNZ033>034-036-042>043-049>051-058-059-022200-
   Central Minnesota

CITY           SKY/WX    TMP DP  RH WIND       PRES   REMARKS
ST CLOUD       SUNNY     26   9  48 S14       30.25F WCI  14
SAUK CENTRE    FAIR      27  11  49 S15G21    30.21F WCI  16
PAYNESVILLE    MOSUNNY   25  10  52 E12       30.24F WCI  14
AITKIN         SUNNY     30   9  40 S13       30.20F WCI  20
PINE RIVER     SUNNY     27   9  46 S14       30.21F WCI  15
BRAINERD       SUNNY     25   8  48 S13G22    30.21F WCI  14
STAPLES        SUNNY     27   9  46 S16       30.19F WCI  14
LONG PRAIRIE   FAIR      27  12  54 SE14      30.20F WCI  15
LITTLE FALLS   SUNNY     28   7  40 SE10G16   30.23F WCI  19
LITCHFIELD     SUNNY     28  12  50 SE10G16   30.26F WCI  19
BUFFALO        SUNNY     27   9  46 S7        30.29F WCI  20
MAPLE LAKE     SUNNY     28  14  55 SE8       30.28F WCI  20
$$
MNZ037-044-045-052-053-022200-
   East Central Minnesota

CITY           SKY/WX    TMP DP  RH WIND       PRES   REMARKS
PRINCETON      SUNNY     28  10  47 S10       30.28F WCI  19
MORA           SUNNY     27   9  46 S13       30.29F WCI  16
CAMBRIDGE      SUNNY     27  10  50 S10G17    30.28F WCI  17
RUSH CITY      SUNNY     27   7  41 S7G20     30.29F WCI  20
MOOSE LAKE     SUNNY     28   9  43 S10       30.23F WCI  19
HINCKLEY       FAIR      28  10  47 S12       30.28F WCI  18
CLOQUET        SUNNY     25   1  36 S10       30.22F WCI  15
MCGREGOR       SUNNY     28  10  47 S13       30.22F WCI  18
$$
MNZ071>073-080-081-089-090-097-098-022200-
   Southwest Minnesota

CITY           SKY/WX    TMP DP  RH WIND       PRES   REMARKS
MONTEVIDEO     PTSUNNY   28  16  59 S13G22    30.21F WCI  18
GRANITE FALLS  CLOUDY    28  17  62 SE14      30.23F WCI  17
CANBY          CLOUDY    30  18  60 S16G23    30.17F WCI  18
MARSHALL       PTSUNNY   28  16  59 S16G22    30.20F WCI  17
REDWOOD FALLS  PTSUNNY   28  16  60 SE20      30.24F WCI  15
OLIVIA         MOSUNNY   27  14  59 SE14      30.24F WCI  15
PIPESTONE      CLOUDY    25  18  74 S16G23    30.14F WCI  12
WINDOM         PTSUNNY   25  16  68 SE14      30.23F WCI  13
WORTHINGTON    CLOUDY    25  16  68 SE16      30.21F WCI  12
JACKSON        CLOUDY    27  18  69 S15       30.23F WCI  15
TRACY          CLOUDY    28  18  66 S15       30.20F WCI  16
SLAYTON        CLOUDY    25  15  65 SE16      30.18F WCI  12
$$
MNZ065>067-074>077-082>085-091>093-022200-
   South Central Minnesota

CITY           SKY/WX    TMP DP  RH WIND       PRES   REMARKS
MANKATO        MOSUNNY   25  10  54 SE13      30.30F WCI  13
NEW ULM        CLOUDY    25  12  58 SE13      30.27F WCI  13
ST JAMES       PTSUNNY   27  16  63 SE10      30.29F WCI  17
FAIRMONT       CLOUDY    25  16  68 SE15      30.26F WCI  12
GLENCOE        MOSUNNY   28  15  57 S7        30.28F WCI  20
FARIBAULT      MOSUNNY   25  10  54 S9        30.32F WCI  15
OWATONNA       MOSUNNY   23  10  58 S8        30.31F WCI  14
ALBERT LEA     PTSUNNY   21  12  68 S9        30.30F WCI  11
$$
MNZ078>079-086>088-094>096-022200-
   Southeast Minnesota

CITY           SKY/WX    TMP DP  RH WIND       PRES   REMARKS
ROCHESTER      MOSUNNY   19   9  65 SW8       30.34F WCI   9
RED WING       MOSUNNY   25   7  46 SW6       30.35F WCI  18
STANTON        FAIR      25   8  49 S9        30.32F WCI  16
DODGE CENTER   MOSUNNY   19  10  68 S8        30.32F WCI   9
WINONA         MOSUNNY   30   9  40 S3        30.39S
AUSTIN         PTSUNNY   19  10  68 SE5       30.33F WCI  13
PRESTON        PTSUNNY   20   7  57 S9        30.34F WCI   9
$$
ABBREVIATIONS USED IN REMARKS
   TC - TEMPERATURES IN CELSIUS
  WCI - WIND CHILL INDEX
   HX - HEAT INDEX
  VSB - VISIBILITY
$$


USA.gov is the U.S. government's official web portal to all federal, state and local government web resources and services.